sat.trackr.live / text

‹ back to catalog

STARLINK-32593

NORAD 61974 · 2024-210R

PAYLOAD ACTIVE UNKNOWN

§ Identity

Operator
Country
US
Launch date
2024-11-14
Launch site
AFETR
Launch vehicle
Mass (kg)
RCS (m²)

Purposes: comms

External: N2YO · Heavens-Above · Gunter

§ Orbital elements

Epoch: 2026-05-25T04:21:38.676096Z

Period
94.27 min
Inclination
43.0005°
Eccentricity
0.0000806
Mean motion
15.27595062 rev/d
Perigee alt
482.5 km
Apogee alt
483.6 km
Semi-major
6,861.1 km
B*
5.2770e-4
RAAN
108.2493°
Arg perigee
263.8172°
Mean anomaly
96.2588°
Rev number
8,657

§ Raw data

STARLINK-325931 61974U 24210R   26145.18169764  .00014294  00000+0  52770-3 0  99992 61974  43.0005 108.2493 0000806 263.8172  96.2588 15.27595062 86577

JSON: /api/v1/satellites/61974 · /tle

For live sub-satellite position, see the globe view (requires WebGL).

§ Visibility from observer

Set your observer location to see the next 7 days of passes ≥ 10°. The values pass through the URL so the page stays shareable.

No JS? Fill the form by hand. The geolocation button needs JavaScript.